CW0506 Weather Reports


time (UTC)temp
F
wind
direction
speed
knots
gust
knots
rain 1hr
in
rain 24hr
in
rain mn
in
humidity
%
barometer
mb
20260507021120 54 92 1.7 3.5 0.02 0.17 0.17 99 1009.5
20260507020619 54 319 0.0 2.6 0.02 0.17 0.17 99 1009.4
20260507020115 54 282 1.7 1.7 0.02 0.17 0.17 99 1009.5
20260507015614 54 79 0.0 2.6 0.02 0.17 0.17 99 1009.4
20260507015111 54 78 2.6 4.3 0.02 0.17 0.17 99 1009.3
20260507014607 54 98 1.7 4.3 0.05 0.17 0.17 99 1009.3
20260507014103 55 249 0.9 3.5 0.07 0.16 0.16 99 1009.5
20260507013600 55 9 5.2 7.0 0.12 0.16 0.16 99 1009.3
20260507013057 56 53 2.6 7.8 0.05 0.15 0.15 99 1008.8
20260507012554 58 235 4.3 11.3 0.00 0.14 0.14 99 1008.6
20260507012049 59 48 0.0 2.6 0.00 0.14 0.14 99 1008.5
20260507011547 59 1 0.0 1.7 0.00 0.14 0.14 99 1008.5
20260507011038 59 100 0.9 1.7 0.00 0.14 0.14 99 1008.3
20260507010532 60 204 0.0 0.9 0.00 0.14 0.14 99 1008.2
20260507010029 60 220 0.9 0.9 0.00 0.14 0.14 99 1008.1
20260507005527 60 158 0.9 1.7 0.00 0.14 0.14 99 1008.0
20260507005023 60 49 0.0 1.7 0.00 0.14 0.14 99 1008.1
20260507004520 60 325 1.7 2.6 0.00 0.14 0.14 99 1007.9
20260507004018 60 170 0.9 1.7 0.00 0.14 0.14 99 1007.7
20260507003513 60 255 1.7 6.1 0.00 0.14 0.14 99 1007.8
20260507003008 60 305 4.3 4.3 0.00 0.14 0.14 99 1007.9
20260507002505 60 281 0.9 3.5 0.00 0.14 0.14 99 1007.8
20260507002001 60 114 0.9 1.7 0.00 0.14 0.14 99 1007.8
20260507001457 60 255 0.9 2.6 0.00 0.14 0.14 99 1007.8
20260507000955 60 249 0.0 1.7 0.00 0.14 0.14 99 1007.7
20260507000451 60 150 0.0 1.7 0.00 0.14 0.14 99 1007.7
20260506235946 60 264 0.0 2.6 0.00 0.14 0.14 99 1007.9
20260506235444 60 62 0.0 1.7 0.00 0.14 0.14 99 1007.8
20260506234940 60 333 2.6 3.5 0.00 0.14 0.14 99 1007.8
20260506234437 60 328 1.7 4.3 0.00 0.14 0.14 99 1007.8
20260506233935 60 228 0.0 2.6 0.00 0.14 0.14 99 1008.0
20260506233431 60 269 1.7 2.6 0.00 0.14 0.14 99 1007.8
20260506232928 60 230 1.7 2.6 0.00 0.14 0.14 99 1007.6
20260506232424 60 182 0.0 3.5 0.00 0.14 0.14 99 1007.7
20260506231920 60 219 0.0 1.7 0.00 0.14 0.14 99 1007.8
20260506231418 60 236 1.7 1.7 0.00 0.14 0.14 99 1007.7
20260506230915 60 272 0.9 2.6 0.00 0.14 0.14 99 1007.7
20260506230411 60 184 0.9 1.7 0.00 0.14 0.14 99 1007.4
20260506225908 60 305 0.0 1.7 0.00 0.14 0.14 99 1007.6
20260506225405 60 196 0.9 2.6 0.00 0.14 0.14 99 1007.5
20260506224902 60 247 0.0 2.6 0.00 0.14 0.14 99 1007.7
20260506224359 60 265 0.9 2.6 0.00 0.14 0.14 99 1007.6
20260506223855 60 328 0.0 5.2 0.00 0.14 0.14 99 1007.3
20260506223351 60 48 0.9 7.0 0.00 0.14 0.14 99 1007.6
20260506222848 60 295 1.7 4.3 0.00 0.14 0.14 99 1007.5
20260506222344 60 299 0.9 3.5 0.00 0.14 0.14 99 1007.4
20260506221842 60 210 0.9 2.6 0.00 0.14 0.14 99 1007.5
20260506221339 60 275 0.0 3.5 0.02 0.14 0.14 99 1007.4
20260506220836 60 258 0.9 3.5 0.02 0.14 0.14 99 1007.4
20260506220332 60 252 2.6 3.5 0.00 0.13 0.13 99 1007.4
20260506215829 60 254 0.9 2.6 0.00 0.13 0.13 99 1007.6
20260506215324 60 318 0.9 1.7 0.02 0.13 0.13 99 1007.4
20260506214820 60 315 1.7 2.6 0.02 0.13 0.13 99 1007.7
20260506214317 60 308 0.0 1.7 0.02 0.13 0.13 99 1007.6
20260506213816 60 332 1.7 2.6 0.09 0.13 0.13 99 1007.5
20260506213312 60 275 2.6 3.5 0.12 0.13 0.13 99 1007.4
20260506212810 59 269 0.0 3.5 0.07 0.11 0.11 99 1007.4
20260506212307 60 155 0.0 0.9 0.02 0.11 0.11 99 1007.4
20260506211801 60 347 0.0 2.6 0.00 0.10 0.10 99 1007.6
20260506211257 60 241 1.7 6.1 0.00 0.10 0.10 99 1007.5
20260506210754 60 297 2.6 4.3 0.02 0.10 0.10 99 1007.4
20260506210251 60 75 0.0 1.7 0.02 0.10 0.10 99 1007.4
20260506205748 60 249 0.9 5.2 0.00 0.10 0.10 99 1007.5
20260506205244 60 266 0.0 3.5 0.00 0.10 0.10 99 1007.5
20260506204741 60 349 0.9 3.5 0.00 0.10 0.10 99 1007.7
20260506204238 60 254 0.0 2.6 0.00 0.10 0.10 99 1007.9
20260506203736 60 306 1.7 4.3 0.00 0.10 0.10 99 1007.8
20260506203233 60 185 0.9 2.6 0.02 0.10 0.10 99 1007.7
20260506202731 60 303 1.7 6.1 0.02 0.09 0.09 99 1007.7
20260506202227 60 242 1.7 4.3 0.05 0.09 0.09 99 1007.8
20260506201724 60 278 1.7 4.3 0.07 0.09 0.09 99 1007.8
20260506201220 60 296 4.3 7.0 0.07 0.09 0.09 99 1007.9
20260506200717 60 252 0.9 3.5 0.05 0.08 0.08 99 1008.0
20260506200209 59 224 1.7 6.1 0.05 0.07 0.07 99 1007.9
20260506195705 60 277 1.7 3.5 0.05 0.07 0.07 99 1008.1
20260506195201 60 238 1.7 3.5 0.02 0.07 0.07 99 1008.2
20260506194659 60 330 1.7 8.7 0.00 0.06 0.06 98 1007.9
20260506194155 60 327 4.3 7.0 0.00 0.06 0.06 99 1008.2
20260506193653 60 271 1.7 3.5 0.00 0.06 0.06 99 1008.1
20260506193149 60 253 1.7 1.7 0.00 0.06 0.06 99 1008.2
20260506192646 60 274 0.0 4.3 0.00 0.06 0.06 99 1008.3
20260506192142 59 279 4.3 5.2 0.00 0.06 0.06 99 1008.2
20260506191639 59 240 1.7 4.3 0.00 0.06 0.06 99 1008.2
20260506191135 59 315 1.7 6.1 0.02 0.06 0.06 98 1008.6
20260506190633 59 249 1.7 6.1 0.02 0.06 0.06 98 1008.5
20260506190130 59 262 2.6 6.1 0.00 0.06 0.06 98 1008.5
20260506185627 59 251 3.5 10.4 0.00 0.06 0.06 98 1008.6
20260506185123 59 175 0.0 3.5 0.00 0.06 0.06 98 1008.6
20260506184620 59 289 2.6 7.8 0.00 0.06 0.06 98 1008.7
20260506184117 59 264 3.5 11.3 0.00 0.06 0.06 98 1008.6
20260506183614 59 265 2.6 7.8 0.00 0.06 0.06 98 1008.8
20260506183110 59 278 3.5 8.7 0.02 0.06 0.06 98 1009.0
20260506182608 59 266 4.3 9.6 0.02 0.06 0.06 98 1008.9
20260506182105 59 76 1.7 3.5 0.02 0.06 0.06 98 1008.9
20260506181603 59 238 2.6 3.5 0.02 0.06 0.06 98 1009.0
20260506181059 59 340 4.3 7.8 0.00 0.05 0.05 97 1008.9
20260506180556 59 296 3.5 9.6 0.02 0.05 0.05 97 1008.7
20260506180053 60 285 5.2 8.7 0.02 0.05 0.05 97 1008.6
20260506175549 60 59 0.0 6.1 0.02 0.05 0.05 97 1008.8
20260506175045 60 269 1.7 6.1 0.05 0.05 0.05 97 1009.0
20260506174544 60 275 0.9 5.2 0.02 0.04 0.04 97 1008.6
20260506174039 61 324 2.6 4.3 0.05 0.04 0.04 96 1008.8
20260506173538 61 312 3.5 8.7 0.07 0.04 0.04 95 1008.9
20260506173034 61 287 1.7 9.6 0.07 0.03 0.03 95 1009.1
20260506172532 61 187 0.0 7.0 0.07 0.02 0.02 94 1009.2
20260506172028 62 275 1.7 7.0 0.07 0.02 0.02 93 1009.4
20260506171525 62 284 0.9 4.3 0.05 0.01 0.01 92 1009.5
20260506171023 62 300 3.5 7.8 0.05 0.01 0.01 90 1009.7
20260506170520 63 286 2.6 5.2 0.02 0.00 0.00 89 1009.8
20260506170012 64 226 5.2 7.0 0.00 0.00 0.00 86 1010.0
20260506165510 64 298 3.5 7.0 0.00 0.00 0.00 84 1009.9
20260506165006 65 315 0.9 8.7 0.00 0.00 0.00 84 1009.8
20260506164503 65 265 2.6 7.8 0.00 0.00 0.00 83 1009.6
20260506164000 66 285 3.5 6.1 0.00 0.00 0.00 82 1010.0
20260506163454 66 265 3.5 7.8 0.00 0.00 0.00 81 1009.9
20260506162949 66 320 2.6 7.8 0.00 0.00 0.00 81 1009.8
20260506162447 67 299 4.3 11.3 0.00 0.00 0.00 78 1009.7
20260506161939 67 287 1.7 7.0 0.00 0.00 0.00 79 1009.8
20260506161437 68 307 5.2 11.3 0.00 0.00 0.00 77 1009.5
20260506160929 67 197 0.0 9.6 0.00 0.00 0.00 77 1009.7
20260506160426 68 257 8.7 11.3 0.00 0.00 0.00 76 1009.8
20260506155923 68 280 5.2 12.2 0.00 0.00 0.00 75 1009.9
20260506155420 68 295 2.6 12.2 0.00 0.00 0.00 75 1009.9
20260506153542 68 317 9.6 9.6 0.00 0.00 0.00 75 1010.3
20260506153040 68 289 7.8 9.6 0.00 0.00 0.00 75 1010.1
20260506152537 68 263 5.2 10.4 0.00 0.00 0.00 75 1010.2
20260506152035 68 339 2.6 9.6 0.00 0.00 0.00 75 1010.2
20260506151532 68 295 6.1 7.8 0.00 0.00 0.00 76 1010.3
20260506151024 67 282 5.2 8.7 0.00 0.00 0.00 76 1010.0
20260506150520 68 299 7.0 8.7 0.00 0.00 0.00 75 1010.5
20260506150017 68 310 2.6 11.3 0.00 0.00 0.00 75 1010.3
20260506145514 68 268 1.7 7.8 0.00 0.00 0.00 75 1010.1
20260506145011 67 303 0.9 7.8 0.00 0.00 0.00 77 1010.3
20260506144508 67 84 0.9 10.4 0.00 0.00 0.00 77 1010.2
20260506144005 67 255 3.5 7.8 0.00 0.00 0.00 77 1010.3
20260506143503 67 264 4.3 9.6 0.00 0.00 0.00 77 1010.5
20260506143001 67 282 4.3 11.3 0.00 0.00 0.00 77 1010.6
20260506142458 67 285 0.9 7.8 0.00 0.00 0.00 77 1010.5
20260506141956 67 305 1.7 3.5 0.00 0.00 0.00 79 1010.5
20260506141454 67 228 1.7 7.8 0.00 0.00 0.00 77 1010.5
20260506140952 68 302 0.9 3.5 0.00 0.00 0.00 76 1010.3
20260506140449 66 11 0.9 7.8 0.00 0.00 0.00 79 1010.2
20260506135945 65 263 1.7 5.2 0.00 0.00 0.00 80 1010.3
20260506135443 64 2 0.9 8.7 0.00 0.00 0.00 83 1010.5
20260506134938 65 353 1.7 7.8 0.00 0.00 0.00 83 1010.6
20260506134435 64 255 3.5 6.1 0.00 0.00 0.00 83 1010.5
20260506133932 64 254 1.7 7.0 0.00 0.00 0.00 84 1010.3
20260506133429 63 177 0.0 2.6 0.00 0.00 0.00 85 1010.4
20260506132926 63 294 3.5 8.7 0.00 0.00 0.00 84 1010.4
20260506132423 63 315 1.7 5.2 0.00 0.00 0.00 85 1010.3
20260506131920 63 249 1.7 4.3 0.00 0.00 0.00 85 1010.4
20260506131416 63 346 0.0 5.2 0.00 0.00 0.00 86 1010.5
20260506130914 62 198 1.7 5.2 0.00 0.00 0.00 86 1010.4
20260506130410 62 231 0.9 2.6 0.00 0.00 0.00 87 1010.5
20260506125908 61 224 0.9 4.3 0.00 0.00 0.00 88 1010.8
20260506125406 61 303 0.9 3.5 0.00 0.00 0.00 88 1010.7
20260506124904 61 283 3.5 6.1 0.00 0.00 0.00 88 1010.6
20260506124401 61 312 5.2 7.8 0.00 0.00 0.00 88 1010.8
20260506123859 61 273 2.6 4.3 0.00 0.00 0.00 88 1011.0
20260506123357 61 257 2.6 4.3 0.00 0.00 0.00 88 1011.2
20260506122854 61 295 3.5 7.8 0.00 0.00 0.00 88 1011.3
20260506122350 61 35 2.6 4.3 0.00 0.00 0.00 89 1011.2
20260506121849 61 37 2.6 7.0 0.00 0.00 0.00 89 1011.2
20260506121346 60 273 4.3 6.1 0.00 0.00 0.00 89 1011.0
20260506120843 61 352 8.7 13.0 0.00 0.00 0.00 89 1011.2
20260506120340 60 296 1.7 5.2 0.00 0.00 0.00 90 1011.3
20260506115837 60 298 1.7 3.5 0.00 0.00 0.00 91 1011.0
20260506115336 60 172 0.9 4.3 0.00 0.00 0.00 91 1011.2
20260506114834 60 105 0.9 5.2 0.00 0.00 0.00 90 1011.0
20260506114331 60 265 0.9 7.8 0.00 0.00 0.00 91 1011.0
20260506113830 59 243 1.7 4.3 0.00 0.00 0.00 92 1011.0
20260506113326 59 237 0.9 7.0 0.00 0.00 0.00 92 1011.3
20260506112823 58 312 0.0 0.9 0.00 0.00 0.00 93 1011.3
20260506112320 58 29 0.0 2.6 0.00 0.00 0.00 93 1011.0
20260506111818 58 156 0.0 1.7 0.00 0.00 0.00 94 1011.2
20260506111316 57 85 1.7 2.6 0.00 0.00 0.00 95 1011.0
20260506110813 57 98 1.7 4.3 0.00 0.00 0.00 97 1011.2
20260506110310 56 238 1.7 1.7 0.00 0.00 0.00 97 1011.4
20260506105806 56 51 2.6 3.5 0.00 0.00 0.00 98 1011.2
20260506105305 55 214 0.0 1.7 0.00 0.00 0.00 98 1011.2
20260506104801 55 113 0.0 1.7 0.00 0.00 0.00 98 1011.4
20260506104258 55 150 0.0 1.7 0.00 0.00 0.00 98 1011.2
20260506103756 55 125 0.0 1.7 0.00 0.00 0.00 98 1011.0
20260506103253 55 146 1.7 2.6 0.00 0.00 0.00 98 1011.3
20260506102750 55 341 0.9 1.7 0.00 0.00 0.00 98 1011.4
20260506102248 55 155 0.0 1.7 0.00 0.00 0.00 98 1011.3
20260506101745 55 137 0.0 0.9 0.00 0.00 0.00 98 1011.4
20260506101241 55 132 0.0 1.7 0.00 0.00 0.00 98 1011.0
20260506100740 54 105 0.0 1.7 0.00 0.00 0.00 98 1011.0
20260506100237 54 73 0.0 1.7 0.00 0.00 0.00 97 1010.9
20260506095736 54 111 0.9 2.6 0.00 0.00 0.00 97 1011.0
20260506095232 55 150 1.7 1.7 0.00 0.00 0.00 97 1011.2
20260506094729 55 185 0.9 2.6 0.00 0.00 0.00 97 1011.2
20260506094227 55 146 2.6 2.6 0.00 0.00 0.00 97 1010.8
20260506093726 55 144 0.0 0.9 0.00 0.00 0.00 97 1011.0
20260506093222 55 138 1.7 1.7 0.00 0.00 0.00 96 1010.9
20260506092720 55 101 0.0 2.6 0.00 0.00 0.00 96 1011.0
20260506092218 55 154 1.7 2.6 0.00 0.00 0.00 96 1010.8
20260506091715 55 115 0.9 1.7 0.00 0.00 0.00 96 1010.8
20260506091212 55 145 0.9 1.7 0.00 0.00 0.00 96 1010.9
20260506090710 55 194 0.9 2.6 0.00 0.00 0.00 95 1010.9
20260506090206 55 149 0.0 2.6 0.00 0.00 0.00 95 1010.9
20260506085704 55 125 0.0 2.6 0.00 0.00 0.00 95 1011.2
20260506085159 55 163 0.0 2.6 0.00 0.00 0.00 95 1010.9
20260506084656 56 121 0.0 2.6 0.00 0.00 0.00 95 1011.0
20260506084153 56 132 1.7 2.6 0.00 0.00 0.00 94 1010.8
20260506083650 56 137 0.0 1.7 0.00 0.00 0.00 94 1010.8
20260506083148 56 161 0.9 3.5 0.00 0.00 0.00 94 1011.0
20260506082644 56 117 0.0 1.7 0.00 0.00 0.00 93 1010.9
20260506082139 56 113 0.0 2.6 0.00 0.00 0.00 93 1011.2
20260506081638 57 148 0.9 1.7 0.00 0.00 0.00 93 1011.3
20260506081135 57 158 0.9 4.3 0.00 0.00 0.00 93 1010.9
20260506080632 57 100 0.0 4.3 0.00 0.00 0.00 93 1011.0
20260506080129 56 189 0.9 1.7 0.00 0.00 0.00 93 1010.9
20260506073113 57 133 1.7 1.7 0.00 0.00 0.00 92 1011.2
20260506072609 57 116 1.7 2.6 0.00 0.00 0.00 91 1010.9
20260506072108 57 166 0.0 1.7 0.00 0.00 0.00 90 1011.0
20260506071605 57 152 1.7 2.6 0.00 0.00 0.00 90 1011.0
20260506071102 57 106 0.9 2.6 0.00 0.00 0.00 90 1011.2
20260506070559 57 146 1.7 1.7 0.00 0.00 0.00 89 1011.0
20260506062033 61 140 0.9 1.7 0.00 0.00 0.00 81 1010.8
20260506061529 61 309 0.9 5.2 0.00 0.00 0.00 80 1010.9
20260506061027 61 318 2.6 4.3 0.00 0.00 0.00 79 1010.8
20260506060526 61 30 0.0 2.6 0.00 0.00 0.00 80 1010.8
20260506050954 63 280 0.0 1.7 0.00 0.00 0.00 74 1011.2
20260506050452 64 252 1.7 7.8 0.00 0.00 0.00 74 1011.2
20260506044942 63 258 0.0 2.6 0.00 0.00 0.00 75 1011.0
20260506044441 63 225 1.7 3.5 0.00 0.00 0.00 75 1011.2
20260506043937 64 264 1.7 5.2 0.00 0.00 0.00 74 1011.2
20260506043434 64 236 7.0 7.8 0.00 0.00 0.00 74 1011.4
20260506042932 63 230 2.6 6.1 0.00 0.00 0.00 74 1010.9
20260506042431 62 150 0.0 1.7 0.00 0.00 0.00 77 1011.3
20260506041929 62 263 3.5 5.2 0.00 0.00 0.00 78 1011.2
20260506041427 61 118 0.0 1.7 0.00 0.00 0.00 78 1011.5
20260506040924 61 175 0.0 1.7 0.00 0.00 0.00 78 1011.3
20260506040421 62 91 0.0 2.6 0.00 0.00 0.00 77 1011.2
20260506035917 62 64 0.9 2.6 0.00 0.00 0.00 77 1011.3
20260506035415 62 122 0.0 1.7 0.00 0.00 0.00 77 1011.2
20260506034911 64 284 1.7 5.2 0.00 0.00 0.00 74 1011.3
20260506034408 62 274 2.6 2.6 0.00 0.00 0.00 76 1011.3
20260506033905 63 226 1.7 3.5 0.00 0.00 0.00 76 1011.4
20260506033403 63 162 0.0 2.6 0.00 0.00 0.00 74 1011.4
20260506032859 63 321 1.7 2.6 0.00 0.00 0.00 75 1011.4
20260506032356 62 150 0.0 3.5 0.00 0.00 0.00 75 1011.2
20260506031853 62 79 0.0 0.9 0.00 0.00 0.00 75 1011.2
20260506031350 63 254 1.7 5.2 0.00 0.00 0.00 75 1011.4
20260506030848 63 251 0.9 4.3 0.00 0.00 0.00 74 1011.3
20260506030346 63 248 0.9 3.5 0.00 0.00 0.00 73 1011.5
20260506025842 63 230 3.5 7.8 0.00 0.00 0.00 73 1011.3
20260506025339 63 307 0.9 3.5 0.00 0.00 0.00 73 1011.3
20260506024836 64 317 0.0 4.3 0.00 0.00 0.00 72 1011.2
20260506024333 63 358 0.0 4.3 0.00 0.00 0.00 73 1011.0
20260506023829 63 213 3.5 6.1 0.00 0.00 0.00 73 1011.3
20260506023326 63 178 0.0 1.7 0.00 0.00 0.00 74 1010.8
20260506022822 63 262 0.0 2.6 0.00 0.00 0.00 72 1011.0
20260506022320 62 221 0.0 3.5 0.00 0.00 0.00 74 1011.2
20260506021819 63 137 0.0 0.9 0.00 0.00 0.00 73 1011.0